START_TIME,STEP,MOV.,A46,t_acc.,A13,t_acc.,M47,t_acc.,A17,t_acc.,A28,t_acc.,M38,t_acc.
1979-07-11 12:00:25.860 ,3,0,,0,784.,4.8,96.,4.8,,0,0.,4.8,216.,4.8
1979-07-11 12:00:30.660 ,3,0,,0,800.,4.8,124.,4.8,,0,0.,4.8,200.,4.8
1979-07-11 12:00:35.460 ,3,0,,0,720.,4.8,112.,4.8,,0,0.,4.8,184.,4.8
1979-07-11 12:00:40.260 ,3,0,,0,0.,4.8,0.,4.8,,0,0.,4.8,204.,4.8
1979-07-11 12:00:45.060 ,3,0,,0,0.,4.8,0.,4.8,,0,0.,4.8,188.,4.8
1979-07-11 12:00:49.860 ,3,0,,0,0.,4.8,0.,4.8,,0,0.,4.8,216.,4.8
1979-07-11 12:00:54.660 ,3,0,,0,0.,4.8,0.,4.8,,0,0.,4.8,224.,4.8
1979-07-11 12:00:59.460 ,3,0,,0,114.,4.8,13.,4.8,,0,0.,4.8,224.,4.8
1979-07-11 12:01:04.260 ,3,0,,0,784.,4.8,108.,4.8,,0,0.,4.8,216.,4.8
1979-07-11 12:01:09.060 ,3,0,,0,800.,4.8,126.,4.8,,0,0.,4.8,196.,4.8
1979-07-11 12:01:13.860 ,3,0,,0,832.,4.8,124.,4.8,,0,0.,4.8,216.,4.8
1979-07-11 12:01:18.660 ,3,0,,0,800.,4.8,126.,4.8,,0,0.,4.8,200.,4.8
1979-07-11 12:01:23.460 ,3,0,,0,672.,4.8,98.,4.8,,0,0.,4.8,188.,4.8
1979-07-11 12:01:28.260 ,3,0,,0,0.,4.8,0.,4.8,,0,0.,4.8,188.,4.8
1979-07-11 12:01:33.060 ,3,0,,0,0.,4.8,0.,4.8,,0,0.,4.8,228.,4.8
1979-07-11 12:01:37.860 ,2,0,,0,0.,4.8,0.,4.8,,0,0.,4.8,192.,4.8
1979-07-11 12:01:42.660 ,2,0,,0,0.,4.8,0.,4.8,,0,0.,4.8,192.,4.8
1979-07-11 12:01:47.460 ,2,0,,0,98.,4.8,15.,4.8,,0,0.,4.8,148.,4.8
1979-07-11 12:01:52.260 ,2,0,,0,592.,4.8,102.,4.8,,0,0.,4.8,168.,4.8
1979-07-11 12:01:57.060 ,2,0,,0,560.,4.8,86.,4.8,,0,0.,4.8,122.,4.8
1979-07-11 12:02:01.860 ,2,0,,0,608.,4.8,92.,4.8,,0,0.,4.8,132.,4.8
1979-07-11 12:02:06.660 ,2,0,,0,592.,4.8,88.,4.8,,0,0.,4.8,168.,4.8
1979-07-11 12:02:11.460 ,2,0,,0,488.,4.8,74.,4.8,,0,0.,4.8,148.,4.8
1979-07-11 12:02:16.260 ,2,0,,0,0.,4.8,0.,4.8,,0,0.,4.8,128.,4.8
1979-07-11 12:02:21.060 ,2,0,,0,0.,4.8,0.,4.8,,0,0.,4.8,144.,4.8
1979-07-11 12:02:25.860 ,2,0,,0,0.,4.8,0.,4.8,,0,0.,4.8,124.,4.8
1979-07-11 12:02:30.660 ,2,0,,0,0.,4.8,0.,4.8,,0,0.,4.8,140.,4.8
1979-07-11 12:02:35.460 ,2,0,,0,78.,4.8,10.,4.8,,0,0.,4.8,140.,4.8
1979-07-11 12:02:40.260 ,2,0,,0,544.,4.8,84.,4.8,,0,0.,4.8,164.,4.8
1979-07-11 12:02:45.060 ,2,0,,0,528.,4.8,78.,4.8,,0,0.,4.8,144.,4.8
1979-07-11 12:02:49.860 ,2,0,,0,576.,4.8,92.,4.8,,0,0.,4.8,160.,4.8
1979-07-11 12:02:54.660 ,2,0,,0,624.,4.8,104.,4.8,,0,0.,4.8,148.,4.8
1979-07-11 12:02:59.460 ,2,0,,0,472.,4.8,70.,4.8,,0,0.,4.8,122.,4.8
1979-07-11 12:03:04.260 ,2,0,,0,0.,4.8,0.,4.8,,0,0.,4.8,132.,4.8
1979-07-11 12:03:09.060 ,2,0,,0,0.,4.8,0.,4.8,,0,0.,4.8,144.,4.8
1979-07-11 12:03:13.860 ,2,0,,0,0.,4.8,0.,4.8,,0,0.,4.8,148.,4.8
1979-07-11 12:03:18.660 ,2,0,,0,0.,4.8,0.,4.8,,0,0.,4.8,168.,4.8
1979-07-11 12:03:23.460 ,2,0,,0,94.,4.8,10.,4.8,,0,0.,4.8,140.,4.8
1979-07-11 12:03:28.260 ,2,0,,0,560.,4.8,84.,4.8,,0,0.,4.8,164.,4.8
1979-07-11 12:03:33.060 ,2,0,,0,560.,4.8,68.,4.8,,0,0.,4.8,136.,4.8
1979-07-11 12:03:37.860 ,2,0,,0,608.,4.8,80.,4.8,,0,0.,4.8,152.,4.8
1979-07-11 12:03:42.660 ,2,0,,0,528.,4.8,108.,4.8,,0,0.,4.8,136.,4.8
1979-07-11 12:03:47.460 ,2,0,,0,496.,4.8,80.,4.8,,0,0.,4.8,140.,4.8
1979-07-11 12:03:52.260 ,2,0,,0,0.,4.8,0.,4.8,,0,0.,4.8,160.,4.8
1979-07-11 12:03:57.060 ,2,0,,0,0.,4.8,0.,4.8,,0,0.,4.8,136.,4.8
1979-07-11 12:04:01.860 ,1,0,,0,0.,4.8,0.,4.8,,0,0.,4.8,136.,4.8
1979-07-11 12:04:06.660 ,1,0,,0,0.,4.8,0.,4.8,,0,0.,4.8,148.,4.8
1979-07-11 12:04:11.460 ,1,0,,0,96.,4.8,15.,4.8,,0,0.,4.8,140.,4.8
1979-07-11 12:04:16.260 ,1,0,,0,544.,4.8,82.,4.8,,0,0.,4.8,128.,4.8
1979-07-11 12:04:21.060 ,1,0,,0,544.,4.8,82.,4.8,,0,0.,4.8,148.,4.8
1979-07-11 12:04:25.860 ,1,0,,0,544.,4.8,92.,4.8,,0,0.,4.8,136.,4.8
1979-07-11 12:04:30.660 ,1,0,,0,560.,4.8,84.,4.8,,0,0.,4.8,120.,4.8
1979-07-11 12:04:35.460 ,1,0,,0,456.,4.8,63.,4.8,,0,0.,4.8,148.,4.8
1979-07-11 12:04:40.260 ,1,0,,0,0.,4.8,0.,4.8,,0,0.,4.8,112.,4.8
1979-07-11 12:04:45.060 ,1,0,,0,0.,4.8,0.,4.8,,0,0.,4.8,140.,4.8
1979-07-11 12:04:49.860 ,1,0,,0,0.,4.8,0.,4.8,,0,0.,4.8,140.,4.8
1979-07-11 12:04:54.660 ,1,0,,0,0.,4.8,0.,4.8,,0,0.,4.8,124.,4.8
1979-07-11 12:04:59.460 ,1,0,,0,84.,4.8,19.,4.8,,0,0.,4.8,110.,4.8
1979-07-11 12:05:04.260 ,1,0,,0,576.,4.8,82.,4.8,,0,0.,4.8,140.,4.8
1979-07-11 12:05:09.060 ,1,0,,0,544.,4.8,100.,4.8,,0,0.,4.8,136.,4.8
1979-07-11 12:05:13.860 ,1,0,,0,528.,4.8,94.,4.8,,0,0.,4.8,128.,4.8
1979-07-11 12:05:18.660 ,1,0,,0,544.,4.8,72.,4.8,,0,0.,4.8,136.,4.8
1979-07-11 12:05:23.460 ,1,0,,0,448.,4.8,78.,4.8,,0,0.,4.8,120.,4.8
1979-07-11 12:05:28.260 ,1,0,,0,0.,4.8,0.,4.8,,0,0.,4.8,122.,4.8
1979-07-11 12:05:33.060 ,1,0,,0,0.,4.8,0.,4.8,,0,0.,4.8,132.,4.8
1979-07-11 12:05:37.860 ,1,0,,0,0.,4.8,0.,4.8,,0,0.,4.8,144.,4.8
1979-07-11 12:05:42.660 ,1,0,,0,0.,4.8,0.,4.8,,0,0.,4.8,122.,4.8
1979-07-11 12:05:47.460 ,1,0,,0,84.,4.8,15.,4.8,,0,0.,4.8,132.,4.8
1979-07-11 12:05:52.260 ,1,0,,0,496.,4.8,74.,4.8,,0,0.,4.8,126.,4.8
1979-07-11 12:05:57.060 ,1,0,,0,512.,4.8,90.,4.8,,0,0.,4.8,140.,4.8
1979-07-11 12:06:01.860 ,1,0,,0,528.,4.8,80.,4.8,,0,0.,4.8,118.,4.8
1979-07-11 12:06:06.660 ,1,0,,0,512.,4.8,68.,4.8,,0,0.,4.8,120.,4.8
1979-07-11 12:06:11.460 ,1,0,,0,448.,4.8,57.,4.8,,0,0.,4.8,128.,4.8
1979-07-11 12:06:16.260 ,1,0,,0,0.,4.8,0.,4.8,,0,0.,4.8,124.,4.8
1979-07-11 12:06:21.060 ,1,0,,0,0.,4.8,0.,4.8,,0,0.,4.8,112.,4.8
1979-07-11 12:06:25.860 ,0,0,,0,0.,4.8,0.,4.8,,0,0.,4.8,132.,4.8
1979-07-11 12:06:30.660 ,0,0,,0,0.,4.8,0.,4.8,,0,0.,4.8,136.,4.8
1979-07-11 12:06:35.460 ,0,0,,0,98.,4.8,21.,4.8,,0,0.,4.8,152.,4.8
1979-07-11 12:06:40.260 ,0,0,,0,624.,4.8,96.,4.8,,0,0.,4.8,168.,4.8
1979-07-11 12:06:45.060 ,0,0,,0,592.,4.8,114.,4.8,,0,0.,4.8,152.,4.8
1979-07-11 12:06:49.860 ,0,0,,0,608.,4.8,78.,4.8,,0,0.,4.8,136.,4.8
1979-07-11 12:06:54.660 ,0,0,,0,640.,4.8,114.,4.8,,0,0.,4.8,160.,4.8
1979-07-11 12:06:59.460 ,0,0,,0,504.,4.8,88.,4.8,,0,0.,4.8,172.,4.8
1979-07-11 12:07:04.260 ,0,0,,0,0.,4.8,0.,4.8,,0,0.,4.8,136.,4.8
1979-07-11 12:07:09.060 ,0,0,,0,0.,4.8,0.,4.8,,0,0.,4.8,156.,4.8
1979-07-11 12:07:13.860 ,0,0,,0,0.,4.8,0.,4.8,,0,0.,4.8,148.,4.8
1979-07-11 12:07:18.660 ,0,0,,0,0.,4.8,0.,4.8,,0,0.,4.8,160.,4.8
1979-07-11 12:07:23.460 ,0,0,,0,102.,4.8,12.,4.8,,0,0.,4.8,164.,4.8
1979-07-11 12:07:28.260 ,0,0,,0,608.,4.8,94.,4.8,,0,0.,4.8,180.,4.8
1979-07-11 12:07:33.060 ,0,0,,0,608.,4.8,108.,4.8,,0,0.,4.8,140.,4.8
1979-07-11 12:07:37.860 ,0,0,,0,624.,4.8,114.,4.8,,0,0.,4.8,172.,4.8
1979-07-11 12:07:42.660 ,0,0,,0,640.,4.8,104.,4.8,,0,0.,4.8,164.,4.8
1979-07-11 12:07:47.460 ,0,0,,0,528.,4.8,80.,4.8,,0,0.,4.8,156.,4.8
1979-07-11 12:07:52.260 ,0,0,,0,0.,4.8,0.,4.8,,0,0.,4.8,180.,4.8
1979-07-11 12:07:57.060 ,0,0,,0,0.,4.8,0.,4.8,,0,0.,4.8,156.,4.8
1979-07-11 12:08:01.860 ,0,0,,0,0.,4.8,0.,4.8,,0,0.,4.8,144.,4.8
1979-07-11 12:08:06.660 ,0,0,,0,0.,4.8,0.,4.8,,0,0.,4.8,160.,4.8
1979-07-11 12:08:11.460 ,0,0,,0,112.,4.8,23.,4.8,,0,0.,4.8,132.,4.8
1979-07-11 12:08:16.260 ,0,0,,0,608.,4.8,86.,4.8,,0,0.,4.8,132.,4.8
1979-07-11 12:08:21.060 ,0,0,,0,576.,4.8,82.,4.8,,0,0.,4.8,168.,4.8
1979-07-11 12:08:25.860 ,0,0,,0,624.,4.8,114.,4.8,,0,0.,4.8,140.,4.8
1979-07-11 12:08:30.660 ,0,0,,0,592.,4.8,98.,4.8,,0,0.,4.8,168.,4.8
1979-07-11 12:08:35.460 ,0,0,,0,512.,4.8,86.,4.8,,0,0.,4.8,152.,4.8
1979-07-11 12:08:40.260 ,0,0,,0,0.,4.8,0.,4.8,,0,0.,4.8,152.,4.8
1979-07-11 12:08:45.060 ,0,0,,0,0.,4.8,0.,4.8,,0,0.,4.8,148.,4.8
1979-07-11 12:08:49.860 ,0,0,,0,0.,4.8,0.,4.8,,0,0.,4.8,156.,4.8
1979-07-11 12:08:54.660 ,0,0,,0,0.,4.8,0.,4.8,,0,0.,4.8,148.,4.8
1979-07-11 12:08:59.460 ,0,0,,0,92.,4.8,16.,4.8,,0,0.,4.8,140.,4.8
1979-07-11 12:09:04.260 ,0,0,,0,592.,4.8,108.,4.8,,0,0.,4.8,160.,4.8
1979-07-11 12:09:09.060 ,0,0,,0,592.,4.8,92.,4.8,,0,0.,4.8,148.,4.8
1979-07-11 12:09:13.860 ,0,0,,0,560.,4.8,94.,4.8,,0,0.,4.8,160.,4.8
1979-07-11 12:09:18.660 ,0,0,,0,608.,4.8,102.,4.8,,0,0.,4.8,184.,4.8
1979-07-11 12:09:23.460 ,0,0,,0,480.,4.8,70.,4.8,,0,0.,4.8,180.,4.8
1979-07-11 12:09:28.260 ,0,0,,0,0.,4.8,0.,4.8,,0,0.,4.8,152.,4.8
1979-07-11 12:09:33.060 ,0,0,,0,0.,4.8,0.,4.8,,0,0.,4.8,172.,4.8
1979-07-11 12:09:37.860 ,0,0,,0,0.,4.8,0.,4.8,,0,0.,4.8,176.,4.8
1979-07-11 12:09:42.660 ,0,0,,0,0.,4.8,0.,4.8,,0,0.,4.8,164.,4.8
1979-07-11 12:09:47.460 ,0,0,,0,102.,4.8,20.,4.8,,0,0.,4.8,144.,4.8
1979-07-11 12:09:52.260 ,0,0,,0,624.,4.8,112.,4.8,,0,0.,4.8,156.,4.8
1979-07-11 12:09:57.060 ,0,0,,0,576.,4.8,84.,4.8,,0,0.,4.8,188.,4.8
1979-07-11 12:10:01.860 ,0,0,,0,656.,4.8,102.,4.8,,0,0.,4.8,172.,4.8
1979-07-11 12:10:06.660 ,0,0,,0,624.,4.8,94.,4.8,,0,0.,4.8,184.,4.8
1979-07-11 12:10:11.460 ,0,0,,0,512.,4.8,72.,4.8,,0,0.,4.8,184.,4.8
1979-07-11 12:10:16.260 ,0,0,,0,0.,4.8,0.,4.8,,0,0.,4.8,156.,4.8
1979-07-11 12:10:21.060 ,0,0,,0,0.,4.8,0.,4.8,,0,0.,4.8,184.,4.8
1979-07-11 12:10:25.860 ,0,0,,0,0.,4.8,0.,4.8,,0,0.,4.8,184.,4.8
1979-07-11 12:10:30.660 ,0,0,,0,0.,4.8,0.,4.8,,0,0.,4.8,160.,4.8
1979-07-11 12:10:35.460 ,0,0,,0,96.,4.8,13.,4.8,,0,0.,4.8,168.,4.8
1979-07-11 12:10:40.260 ,0,0,,0,624.,4.8,102.,4.8,,0,0.,4.8,140.,4.8
1979-07-11 12:10:45.060 ,0,0,,0,592.,4.8,108.,4.8,,0,0.,4.8,144.,4.8
1979-07-11 12:10:49.860 ,0,0,,0,608.,4.8,104.,4.8,,0,0.,4.8,156.,4.8
1979-07-11 12:10:54.660 ,0,0,,0,560.,4.8,92.,4.8,,0,0.,4.8,156.,4.8
1979-07-11 12:10:59.460 ,0,0,,0,504.,4.8,96.,4.8,,0,0.,4.8,144.,4.8
1979-07-11 12:11:04.260 ,0,0,,0,0.,4.8,0.,4.8,,0,0.,4.8,136.,4.8
1979-07-11 12:11:09.060 ,0,0,,0,0.,4.8,0.,4.8,,0,0.,4.8,140.,4.8
1979-07-11 12:11:13.860 ,1,0,,0,0.,4.8,0.,4.8,,0,0.,4.8,136.,4.8
1979-07-11 12:11:18.660 ,1,0,,0,0.,4.8,0.,4.8,,0,0.,4.8,144.,4.8
1979-07-11 12:11:23.460 ,1,0,,0,84.,4.8,15.,4.8,,0,0.,4.8,128.,4.8
1979-07-11 12:11:28.260 ,1,0,,0,496.,4.8,80.,4.8,,0,0.,4.8,120.,4.8
1979-07-11 12:11:33.060 ,1,0,,0,496.,4.8,80.,4.8,,0,0.,4.8,126.,4.8
1979-07-11 12:11:37.860 ,1,0,,0,472.,4.8,94.,4.8,,0,0.,4.8,118.,4.8
1979-07-11 12:11:42.660 ,1,0,,0,472.,4.8,90.,4.8,,0,0.,4.8,114.,4.8
1979-07-11 12:11:47.460 ,1,0,,0,392.,4.8,62.,4.8,,0,0.,4.8,128.,4.8
1979-07-11 12:11:52.260 ,1,0,,0,0.,4.8,0.,4.8,,0,0.,4.8,116.,4.8
1979-07-11 12:11:57.060 ,1,0,,0,0.,4.8,0.,4.8,,0,0.,4.8,140.,4.8
1979-07-11 12:12:01.860 ,1,0,,0,0.,4.8,0.,4.8,,0,0.,4.8,136.,4.8
1979-07-11 12:12:06.660 ,1,0,,0,0.,4.8,0.,4.8,,0,0.,4.8,122.,4.8
1979-07-11 12:12:11.460 ,1,0,,0,55.,4.8,9.,4.8,,0,0.,4.8,120.,4.8
1979-07-11 12:12:16.260 ,1,0,,0,456.,4.8,88.,4.8,,0,0.,4.8,124.,4.8
1979-07-11 12:12:21.060 ,1,0,,0,464.,4.8,74.,4.8,,0,0.,4.8,106.,4.8
1979-07-11 12:12:25.860 ,1,0,,0,480.,4.8,70.,4.8,,0,0.,4.8,114.,4.8
1979-07-11 12:12:30.660 ,1,0,,0,488.,4.8,78.,4.8,,0,0.,4.8,128.,4.8
1979-07-11 12:12:35.460 ,1,0,,0,368.,4.8,52.,4.8,,0,0.,4.8,126.,4.8
1979-07-11 12:12:40.260 ,1,0,,0,0.,4.8,0.,4.8,,0,0.,4.8,114.,4.8
1979-07-11 12:12:45.060 ,1,0,,0,0.,4.8,0.,4.8,,0,0.,4.8,110.,4.8
1979-07-11 12:12:49.860 ,1,0,,0,0.,4.8,0.,4.8,,0,0.,4.8,118.,4.8
1979-07-11 12:12:54.660 ,1,0,,0,0.,4.8,0.,4.8,,0,0.,4.8,108.,4.8
1979-07-11 12:12:59.460 ,1,0,,0,53.,4.8,9.,4.8,,0,0.,4.8,98.,4.8
1979-07-11 12:13:04.260 ,1,0,,0,432.,4.8,68.,4.8,,0,0.,4.8,104.,4.8
1979-07-11 12:13:09.060 ,1,0,,0,472.,4.8,76.,4.8,,0,0.,4.8,118.,4.8
1979-07-11 12:13:13.860 ,1,0,,0,432.,4.8,84.,4.8,,0,0.,4.8,108.,4.8
1979-07-11 12:13:18.660 ,1,0,,0,440.,4.8,78.,4.8,,0,0.,4.8,112.,4.8
1979-07-11 12:13:23.460 ,1,0,,0,336.,4.8,66.,4.8,,0,0.,4.8,102.,4.8
1979-07-11 12:13:28.260 ,1,0,,0,0.,4.8,0.,4.8,,0,0.,4.8,84.,4.8
1979-07-11 12:13:33.060 ,1,0,,0,0.,4.8,0.,4.8,,0,0.,4.8,102.,4.8
1979-07-11 12:13:37.860 ,2,0,,0,0.,4.8,0.,4.8,,0,0.,4.8,112.,4.8
1979-07-11 12:13:42.660 ,2,0,,0,0.,4.8,0.,4.8,,0,0.,4.8,128.,4.8
1979-07-11 12:13:47.460 ,2,0,,0,72.,4.8,12.,4.8,,0,0.,4.8,108.,4.8
1979-07-11 12:13:52.260 ,2,0,,0,440.,4.8,62.,4.8,,0,0.,4.8,128.,4.8
1979-07-11 12:13:57.060 ,2,0,,0,424.,4.8,59.,4.8,,0,0.,4.8,124.,4.8
1979-07-11 12:14:01.860 ,2,0,,0,480.,4.8,78.,4.8,,0,0.,4.8,116.,4.8
1979-07-11 12:14:06.660 ,2,0,,0,496.,4.8,82.,4.8,,0,0.,4.8,110.,4.8
1979-07-11 12:14:11.460 ,2,0,,0,368.,4.8,45.,4.8,,0,0.,4.8,132.,4.8
1979-07-11 12:14:16.260 ,2,0,,0,0.,4.8,0.,4.8,,0,0.,4.8,106.,4.8
1979-07-11 12:14:21.060 ,2,0,,0,0.,4.8,0.,4.8,,0,0.,4.8,136.,4.8
1979-07-11 12:14:25.860 ,2,0,,0,0.,4.8,0.,4.8,,0,0.,4.8,112.,4.8
1979-07-11 12:14:30.660 ,2,0,,0,0.,4.8,0.,4.8,,0,0.,4.8,112.,4.8
1979-07-11 12:14:35.460 ,2,0,,0,78.,4.8,12.,4.8,,0,0.,4.8,110.,4.8
1979-07-11 12:14:40.260 ,2,0,,0,488.,4.8,76.,4.8,,0,0.,4.8,96.,4.8
1979-07-11 12:14:45.060 ,2,0,,0,472.,4.8,76.,4.8,,0,0.,4.8,106.,4.8
1979-07-11 12:14:49.860 ,2,0,,0,424.,4.8,74.,4.8,,0,0.,4.8,106.,4.8
1979-07-11 12:14:54.660 ,2,0,,0,440.,4.8,80.,4.8,,0,0.,4.8,104.,4.8
1979-07-11 12:14:59.460 ,2,0,,0,424.,4.8,74.,4.8,,0,0.,4.8,116.,4.8
1979-07-11 12:15:04.260 ,2,0,,0,0.,4.8,0.,4.8,,0,0.,4.8,132.,4.8
1979-07-11 12:15:09.060 ,2,0,,0,0.,4.8,0.,4.8,,0,0.,4.8,120.,4.8
1979-07-11 12:15:13.860 ,2,0,,0,0.,4.8,0.,4.8,,0,0.,4.8,114.,4.8
1979-07-11 12:15:18.660 ,2,0,,0,0.,4.8,0.,4.8,,0,0.,4.8,102.,4.8
1979-07-11 12:15:23.460 ,2,0,,0,96.,4.8,16.,4.8,,0,0.,4.8,102.,4.8
1979-07-11 12:15:28.260 ,2,0,,0,448.,4.8,72.,4.8,,0,0.,4.8,100.,4.8
1979-07-11 12:15:33.060 ,2,0,,0,416.,4.8,64.,4.8,,0,0.,4.8,110.,4.8
1979-07-11 12:15:37.860 ,2,0,,0,464.,4.8,80.,4.8,,0,0.,4.8,112.,4.8
1979-07-11 12:15:42.660 ,2,0,,0,448.,4.8,60.,4.8,,0,0.,4.8,108.,4.8
1979-07-11 12:15:47.460 ,2,0,,0,344.,4.8,70.,4.8,,0,0.,4.8,118.,4.8
1979-07-11 12:15:52.260 ,2,0,,0,0.,4.8,0.,4.8,,0,0.,4.8,112.,4.8
1979-07-11 12:15:57.060 ,2,0,,0,0.,4.8,0.,4.8,,0,0.,4.8,132.,4.8
1979-07-11 12:16:01.860 ,3,0,,0,0.,4.8,0.,4.8,,0,0.,4.8,102.,4.8
1979-07-11 12:16:06.660 ,3,0,,0,0.,4.8,0.,4.8,,0,0.,4.8,128.,4.8
1979-07-11 12:16:11.460 ,3,0,,0,96.,4.8,17.,4.8,,0,0.,4.8,156.,4.8
1979-07-11 12:16:16.260 ,3,0,,0,640.,4.8,90.,4.8,,0,0.,4.8,156.,4.8
1979-07-11 12:16:21.060 ,3,0,,0,640.,4.8,104.,4.8,,0,0.,4.8,156.,4.8
1979-07-11 12:16:25.860 ,3,0,,0,576.,4.8,80.,4.8,,0,0.,4.8,168.,4.8
1979-07-11 12:16:30.660 ,3,0,,0,624.,4.8,104.,4.8,,0,0.,4.8,164.,4.8
1979-07-11 12:16:35.460 ,3,0,,0,544.,4.8,84.,4.8,,0,0.,4.8,180.,4.8
1979-07-11 12:16:40.260 ,3,0,,0,0.,4.8,0.,4.8,,0,0.,4.8,148.,4.8
1979-07-11 12:16:45.060 ,3,0,,0,0.,4.8,0.,4.8,,0,0.,4.8,152.,4.8
1979-07-11 12:16:49.860 ,3,0,,0,0.,4.8,0.,4.8,,0,0.,4.8,140.,4.8
1979-07-11 12:16:54.660 ,3,0,,0,0.,4.8,0.,4.8,,0,0.,4.8,168.,4.8
1979-07-11 12:16:59.460 ,3,0,,0,120.,4.8,20.,4.8,,0,0.,4.8,172.,4.8
1979-07-11 12:17:04.260 ,3,0,,0,608.,4.8,106.,4.8,,0,0.,4.8,148.,4.8
1979-07-11 12:17:09.060 ,3,0,,0,608.,4.8,102.,4.8,,0,0.,4.8,148.,4.8
1979-07-11 12:17:13.860 ,3,0,,0,576.,4.8,102.,4.8,,0,0.,4.8,168.,4.8
1979-07-11 12:17:18.660 ,3,0,,0,576.,4.8,100.,4.8,,0,0.,4.8,164.,4.8
1979-07-11 12:17:23.460 ,3,0,,0,480.,4.8,80.,4.8,,0,0.,4.8,164.,4.8
1979-07-11 12:17:28.260 ,3,0,,0,0.,4.8,0.,4.8,,0,0.,4.8,164.,4.8
1979-07-11 12:17:33.060 ,3,0,,0,0.,4.8,0.,4.8,,0,0.,4.8,144.,4.8
1979-07-11 12:17:37.860 ,3,0,,0,0.,4.8,0.,4.8,,0,0.,4.8,152.,4.8
1979-07-11 12:17:42.660 ,3,0,,0,0.,4.8,0.,4.8,,0,0.,4.8,140.,4.8
1979-07-11 12:17:47.460 ,3,0,,0,92.,4.8,17.,4.8,,0,0.,4.8,144.,4.8
1979-07-11 12:17:52.260 ,3,0,,0,528.,4.8,86.,4.8,,0,0.,4.8,140.,4.8
1979-07-11 12:17:57.060 ,3,0,,0,592.,4.8,100.,4.8,,0,0.,4.8,148.,4.8
1979-07-11 12:18:01.860 ,3,0,,0,560.,4.8,100.,4.8,,0,0.,4.8,148.,4.8
1979-07-11 12:18:06.660 ,3,0,,0,528.,4.8,90.,4.8,,0,0.,4.8,164.,4.8
1979-07-11 12:18:11.460 ,3,0,,0,472.,4.8,78.,4.8,,0,0.,4.8,148.,4.8
1979-07-11 12:18:16.260 ,3,0,,0,0.,4.8,0.,4.8,,0,0.,4.8,148.,4.8
1979-07-11 12:18:21.060 ,3,0,,0,0.,4.8,0.,4.8,,0,0.,4.8,132.,4.8
1979-07-11 12:18:25.860 ,4,0,,0,0.,4.8,0.,4.8,,0,0.,4.8,172.,4.8
1979-07-11 12:18:30.660 ,4,0,,0,0.,4.8,0.,4.8,,0,0.,4.8,212.,4.8
1979-07-11 12:18:35.460 ,4,0,,0,136.,4.8,23.,4.8,,0,0.,4.8,264.,4.8
1979-07-11 12:18:40.260 ,4,0,,0,816.,4.8,124.,4.8,,0,0.,4.8,288.,4.8
1979-07-11 12:18:45.060 ,4,0,,0,864.,4.8,132.,4.8,,0,0.,4.8,280.,4.8
1979-07-11 12:18:49.860 ,4,0,,0,816.,4.8,136.,4.8,,0,0.,4.8,272.,4.8
1979-07-11 12:18:54.660 ,4,0,,0,832.,4.8,132.,4.8,,0,0.,4.8,272.,4.8
1979-07-11 12:18:59.460 ,4,0,,0,736.,4.8,128.,4.8,,0,0.,4.8,252.,4.8
1979-07-11 12:19:04.260 ,4,0,,0,0.,4.8,0.,4.8,,0,0.,4.8,252.,4.8
1979-07-11 12:19:09.060 ,4,0,,0,0.,4.8,0.,4.8,,0,0.,4.8,280.,4.8
1979-07-11 12:19:13.860 ,4,0,,0,0.,4.8,0.,4.8,,0,0.,4.8,264.,4.8
1979-07-11 12:19:18.660 ,4,0,,0,0.,4.8,0.,4.8,,0,0.,4.8,272.,4.8
1979-07-11 12:19:23.460 ,4,0,,0,180.,4.8,31.,4.8,,0,0.,4.8,288.,4.8
1979-07-11 12:19:28.260 ,4,0,,0,944.,4.8,172.,4.8,,0,0.,4.8,280.,4.8
1979-07-11 12:19:33.060 ,4,0,,0,976.,4.8,160.,4.8,,0,0.,4.8,264.,4.8
1979-07-11 12:19:37.860 ,4,0,,0,960.,4.8,164.,4.8,,0,0.,4.8,288.,4.8
1979-07-11 12:19:42.660 ,4,0,,0,1008.,4.8,168.,4.8,,0,0.,4.8,252.,4.8
1979-07-11 12:19:47.460 ,4,0,,0,848.,4.8,126.,4.8,,0,0.,4.8,304.,4.8
1979-07-11 12:19:52.260 ,4,0,,0,0.,4.8,0.,4.8,,0,0.,4.8,280.,4.8
1979-07-11 12:19:57.060 ,4,0,,0,0.,4.8,0.,4.8,,0,0.,4.8,264.,4.8
1979-07-11 12:20:01.860 ,4,0,,0,0.,4.8,0.,4.8,,0,0.,4.8,272.,4.8
1979-07-11 12:20:06.660 ,4,0,,0,0.,4.8,0.,4.8,,0,0.,4.8,264.,4.8
1979-07-11 12:20:11.460 ,4,0,,0,188.,4.8,25.,4.8,,0,0.,4.8,272.,4.8
1979-07-11 12:20:16.260 ,4,0,,0,1008.,4.8,152.,4.8,,0,0.,4.8,296.,4.8
1979-07-11 12:20:21.060 ,4,0,,0,960.,4.8,152.,4.8,,0,0.,4.8,288.,4.8
1979-07-11 12:20:25.860 ,4,0,,0,960.,4.8,164.,4.8,,0,0.,4.8,280.,4.8
1979-07-11 12:20:30.660 ,4,0,,0,992.,4.8,160.,4.8,,0,0.,4.8,296.,4.8
1979-07-11 12:20:35.460 ,4,0,,0,784.,4.8,126.,4.8,,0,0.,4.8,296.,4.8
1979-07-11 12:20:40.260 ,4,0,,0,0.,4.8,0.,4.8,,0,0.,4.8,280.,4.8
1979-07-11 12:20:45.060 ,4,0,,0,0.,4.8,0.,4.8,,0,0.,4.8,304.,4.8
1979-07-11 12:20:49.860 ,5,0,,0,0.,4.8,0.,4.8,,0,0.,4.8,312.,4.8
1979-07-11 12:20:54.660 ,5,0,,0,0.,4.8,0.,4.8,,0,0.,4.8,368.,4.8
1979-07-11 12:20:59.460 ,5,0,,0,212.,4.8,33.,4.8,,0,0.,4.8,432.,4.8
1979-07-11 12:21:04.260 ,5,0,,0,1280.,4.8,200.,4.8,,0,0.,4.8,408.,4.8
1979-07-11 12:21:09.060 ,5,0,,0,1376.,4.8,228.,4.8,,0,0.,4.8,416.,4.8
1979-07-11 12:21:13.860 ,5,0,,0,1280.,4.8,228.,4.8,,0,0.,4.8,392.,4.8
1979-07-11 12:21:18.660 ,5,0,,0,1312.,4.8,204.,4.8,,0,0.,4.8,424.,4.8
1979-07-11 12:21:23.460 ,5,0,,0,1120.,4.8,176.,4.8,,0,0.,4.8,400.,4.8
1979-07-11 12:21:28.260 ,5,0,,0,0.,4.8,0.,4.8,,0,0.,4.8,384.,4.8
1979-07-11 12:21:33.060 ,5,0,,0,0.,4.8,0.,4.8,,0,0.,4.8,376.,4.8
1979-07-11 12:21:37.860 ,5,0,,0,0.,4.8,0.,4.8,,0,0.,4.8,416.,4.8
1979-07-11 12:21:42.660 ,5,0,,0,0.,4.8,0.,4.8,,0,0.,4.8,384.,4.8
1979-07-11 12:21:47.460 ,5,0,,0,216.,4.8,32.,4.8,,0,0.,4.8,368.,4.8
1979-07-11 12:21:52.260 ,5,0,,0,1312.,4.8,204.,4.8,,0,0.,4.8,392.,4.8
1979-07-11 12:21:57.060 ,5,0,,0,1344.,4.8,216.,4.8,,0,0.,4.8,392.,4.8
1979-07-11 12:22:01.860 ,5,0,,0,1344.,4.8,180.,4.8,,0,0.,4.8,400.,4.8
1979-07-11 12:22:06.660 ,5,0,,0,1216.,4.8,176.,4.8,,0,0.,4.8,384.,4.8
1979-07-11 12:22:11.460 ,5,0,,0,1008.,4.8,164.,4.8,,0,0.,4.8,416.,4.8
1979-07-11 12:22:16.260 ,5,0,,0,0.,4.8,0.,4.8,,0,0.,4.8,384.,4.8
1979-07-11 12:22:21.060 ,5,0,,0,0.,4.8,0.,4.8,,0,0.,4.8,400.,4.8
1979-07-11 12:22:25.860 ,5,0,,0,0.,4.8,0.,4.8,,0,0.,4.8,352.,4.8
1979-07-11 12:22:30.660 ,5,0,,0,0.,4.8,0.,4.8,,0,0.,4.8,384.,4.8
1979-07-11 12:22:35.460 ,5,0,,0,248.,4.8,49.,4.8,,0,0.,4.8,392.,4.8
1979-07-11 12:22:40.260 ,5,0,,0,1248.,4.8,200.,4.8,,0,0.,4.8,384.,4.8
1979-07-11 12:22:45.060 ,5,0,,0,1344.,4.8,216.,4.8,,0,0.,4.8,360.,4.8
1979-07-11 12:22:49.860 ,5,0,,0,1216.,4.8,184.,4.8,,0,0.,4.8,392.,4.8
1979-07-11 12:22:54.660 ,5,0,,0,1248.,4.8,176.,4.8,,0,0.,4.8,336.,4.8
1979-07-11 12:22:59.460 ,5,0,,0,1056.,4.8,156.,4.8,,0,0.,4.8,416.,4.8
1979-07-11 12:23:04.260 ,5,0,,0,0.,4.8,0.,4.8,,0,0.,4.8,352.,4.8
1979-07-11 12:23:09.060 ,5,0,,0,0.,4.8,0.,4.8,,0,0.,4.8,344.,4.8
1979-07-11 12:23:13.860 ,6,0,,0,0.,4.8,0.,4.8,,0,0.,4.8,320.,4.8
1979-07-11 12:23:18.660 ,6,0,,0,0.,4.8,0.,4.8,,0,0.,4.8,304.,4.8
1979-07-11 12:23:23.460 ,6,0,,0,156.,4.8,26.,4.8,,0,0.,4.8,272.,4.8
1979-07-11 12:23:28.260 ,6,0,,0,960.,4.8,148.,4.8,,0,0.,4.8,264.,4.8
1979-07-11 12:23:33.060 ,6,0,,0,992.,4.8,164.,4.8,,0,0.,4.8,264.,4.8
1979-07-11 12:23:37.860 ,6,0,,0,976.,4.8,156.,4.8,,0,0.,4.8,296.,4.8
1979-07-11 12:23:42.660 ,6,0,,0,960.,4.8,168.,4.8,,0,0.,4.8,312.,4.8
1979-07-11 12:23:47.460 ,6,0,,0,832.,4.8,128.,4.8,,0,0.,4.8,320.,4.8
1979-07-11 12:23:52.260 ,6,0,,0,0.,4.8,0.,4.8,,0,0.,4.8,288.,4.8
1979-07-11 12:23:57.060 ,6,0,,0,0.,4.8,0.,4.8,,0,0.,4.8,256.,4.8
1979-07-11 12:24:01.860 ,6,0,,0,0.,4.8,0.,4.8,,0,0.,4.8,312.,4.8
1979-07-11 12:24:06.660 ,6,0,,0,0.,4.8,0.,4.8,,0,0.,4.8,288.,4.8
1979-07-11 12:24:11.460 ,6,0,,0,164.,4.8,29.,4.8,,0,0.,4.8,264.,4.8
1979-07-11 12:24:16.260 ,6,0,,0,928.,4.8,160.,4.8,,0,0.,4.8,272.,4.8
1979-07-11 12:24:21.060 ,6,0,,0,944.,4.8,148.,4.8,,0,0.,4.8,272.,4.8
1979-07-11 12:24:25.860 ,6,0,,0,896.,4.8,152.,4.8,,0,0.,4.8,256.,4.8
1979-07-11 12:24:30.660 ,6,0,,0,928.,4.8,164.,4.8,,0,0.,4.8,272.,4.8
1979-07-11 12:24:35.460 ,6,0,,0,752.,4.8,126.,4.8,,0,0.,4.8,296.,4.8
1979-07-11 12:24:40.260 ,6,0,,0,0.,4.8,0.,4.8,,0,0.,4.8,272.,4.8
1979-07-11 12:24:45.060 ,6,0,,0,0.,4.8,0.,4.8,,0,0.,4.8,304.,4.8
1979-07-11 12:24:49.860 ,6,0,,0,0.,4.8,0.,4.8,,0,0.,4.8,280.,4.8
1979-07-11 12:24:54.660 ,6,0,,0,0.,4.8,0.,4.8,,0,0.,4.8,256.,4.8
1979-07-11 12:24:59.460 ,6,0,,0,164.,4.8,36.,4.8,,0,0.,4.8,256.,4.8
1979-07-11 12:25:04.260 ,6,0,,0,864.,4.8,136.,4.8,,0,0.,4.8,296.,4.8
1979-07-11 12:25:09.060 ,6,0,,0,928.,4.8,140.,4.8,,0,0.,4.8,248.,4.8
1979-07-11 12:25:13.860 ,6,0,,0,928.,4.8,152.,4.8,,0,0.,4.8,296.,4.8
1979-07-11 12:25:18.660 ,6,0,,0,896.,4.8,144.,4.8,,0,0.,4.8,256.,4.8
1979-07-11 12:25:23.460 ,6,0,,0,752.,4.8,120.,4.8,,0,0.,4.8,256.,4.8
1979-07-11 12:25:28.260 ,6,0,,0,0.,4.8,0.,4.8,,0,0.,4.8,244.,4.8
1979-07-11 12:25:33.060 ,6,0,,0,0.,4.8,0.,4.8,,0,0.,4.8,244.,4.8
1979-07-11 12:25:37.860 ,7,0,,0,0.,4.8,0.,4.8,,0,0.,4.8,272.,4.8
1979-07-11 12:25:42.660 ,7,0,,0,0.,4.8,0.,4.8,,0,0.,4.8,196.,4.8
1979-07-11 12:25:47.460 ,7,0,,0,1.,4.8,0.,4.8,,0,0.,4.8,0.,4.8
1979-07-11 12:25:52.260 ,7,0,,0,6.,4.8,0.,4.8,,0,0.,4.8,0.,4.8
1979-07-11 12:25:57.060 ,7,0,,0,9.,4.8,0.,4.8,,0,0.,4.8,0.,4.8
1979-07-11 12:26:01.860 ,0,0,,0,7.,4.8,0.,4.8,,0,0.,4.8,0.,4.8
1979-07-11 12:26:06.660 ,0,0,,0,14.,4.8,0.,4.8,,0,0.,4.8,0.,4.8
1979-07-11 12:26:11.460 ,0,0,,0,8.,4.8,0.,4.8,,0,0.,4.8,0.,4.8
1979-07-11 12:26:16.260 ,0,0,,0,,0,,0,,0,,0,,0
1979-07-11 12:26:21.060 ,0,0,,0,,0,,0,,0,,0,,0
1979-07-11 12:26:25.860 ,0,0,,0,0.,4.8,0.,4.8,,0,0.,4.8,0.,4.8
1979-07-11 12:26:30.660 ,0,0,,0,0.,4.8,0.,4.8,,0,0.,4.8,0.,4.8
1979-07-11 12:26:35.460 ,0,0,,0,2.,4.8,0.,4.8,,0,0.,4.8,0.,4.8
1979-07-11 12:26:40.260 ,0,0,,0,14.,4.8,0.,4.8,,0,0.,4.8,0.,4.8
1979-07-11 12:26:45.060 ,0,0,,0,8.,4.8,0.,4.8,,0,0.,4.8,0.,4.8
1979-07-11 12:26:49.860 ,0,0,,0,6.,4.8,0.,4.8,,0,0.,4.8,0.,4.8
1979-07-11 12:26:54.660 ,0,0,,0,9.,4.8,0.,4.8,,0,0.,4.8,0.,4.8
1979-07-11 12:26:59.460 ,0,0,,0,5.,4.8,0.,4.8,,0,0.,4.8,0.,4.8
1979-07-11 12:27:04.260 ,0,0,,0,0.,4.8,0.,4.8,,0,0.,4.8,1.,4.8
1979-07-11 12:27:09.060 ,0,0,,0,0.,4.8,0.,4.8,,0,0.,4.8,0.,4.8
1979-07-11 12:27:13.860 ,0,0,,0,0.,4.8,0.,4.8,,0,0.,4.8,0.,4.8
1979-07-11 12:27:18.660 ,0,0,,0,0.,4.8,0.,4.8,,0,0.,4.8,0.,4.8
1979-07-11 12:27:23.460 ,0,0,,0,1.,4.8,0.,4.8,,0,0.,4.8,0.,4.8
1979-07-11 12:27:28.260 ,0,0,,0,12.,4.8,0.,4.8,,0,0.,4.8,0.,4.8
1979-07-11 12:27:33.060 ,0,0,,0,13.,4.8,0.,4.8,,0,0.,4.8,0.,4.8
1979-07-11 12:27:37.860 ,0,0,,0,8.,4.8,0.,4.8,,0,0.,4.8,0.,4.8
1979-07-11 12:27:42.660 ,0,0,,0,9.,4.8,0.,4.8,,0,0.,4.8,0.,4.8
1979-07-11 12:27:47.460 ,0,0,,0,14.,4.8,0.,4.8,,0,0.,4.8,0.,4.8
1979-07-11 12:27:52.260 ,0,0,,0,0.,4.8,0.,4.8,,0,0.,4.8,0.,4.8
1979-07-11 12:27:57.060 ,0,0,,0,0.,4.8,0.,4.8,,0,0.,4.8,0.,4.8
1979-07-11 12:28:01.860 ,7,0,,0,0.,4.8,0.,4.8,,0,0.,4.8,0.,4.8
1979-07-11 12:28:06.660 ,7,0,,0,0.,4.8,0.,4.8,,0,0.,4.8,0.,4.8
1979-07-11 12:28:11.460 ,7,0,,0,1.,4.8,0.,4.8,,0,0.,4.8,0.,4.8
1979-07-11 12:28:16.260 ,7,0,,0,3.,4.8,0.,4.8,,0,0.,4.8,0.,4.8
1979-07-11 12:28:21.060 ,7,0,,0,5.,4.8,0.,4.8,,0,0.,4.8,0.,4.8
1979-07-11 12:28:25.860 ,7,0,,0,10.,4.8,0.,4.8,,0,0.,4.8,0.,4.8
1979-07-11 12:28:30.660 ,7,0,,0,11.,4.8,0.,4.8,,0,0.,4.8,0.,4.8
1979-07-11 12:28:35.460 ,7,0,,0,4.,4.8,0.,4.8,,0,0.,4.8,0.,4.8
1979-07-11 12:28:40.260 ,7,0,,0,0.,4.8,0.,4.8,,0,0.,4.8,0.,4.8